Theta_e
330 329 325 324 313 313 312 315 320 325 327 332 334 330 322 320 319 318 359 360 363 360 363 361 364 362 362 364 365 366 366 365 364 363 362 362 362 362 362 362 362 361 357 356 358 358 358 357 357
327 325 324 320 310 309 312 315 317 326 331 332 325 322 320 316 322 325 335 364 363 362 364 362 363 362 361 361 362 364 365 365 364 364 363 362 362 362 362 362 361 359 355 355 357 358 356 356 357
328 325 317 314 312 309 312 316 322 329 328 324 318 322 319 315 318 321 340 365 362 362 365 366 364 363 361 360 360 361 362 363 363 362 362 362 361 362 361 360 360 357 353 354 357 357 356 356 356
323 319 316 310 310 314 315 320 325 323 322 322 323 315 317 333 331 338 365 363 358 359 364 363 363 363 361 360 360 360 361 361 361 361 361 361 361 361 360 359 358 355 353 352 354 355 353 354 353
322 318 309 309 311 313 314 322 325 322 321 320 320 313 315 337 340 361 364 361 357 359 363 364 363 363 361 361 360 360 360 360 360 360 360 360 361 360 360 360 358 356 354 352 352 351 351 350 351
314 315 306 307 311 312 315 323 325 322 320 317 316 316 324 340 350 362 364 361 360 360 362 363 363 364 362 361 360 360 360 359 358 358 358 358 358 358 358 359 359 359 358 356 354 351 349 348 349
312 309 306 309 311 311 314 321 320 320 318 316 318 315 330 337 353 362 365 366 364 361 361 363 363 363 362 360 360 359 359 359 358 358 357 355 355 356 357 358 358 358 358 358 356 355 353 350 349
314 312 307 309 310 310 315 319 322 321 316 317 318 316 325 342 354 361 364 364 363 362 362 363 364 364 366 364 360 359 359 358 358 357 357 357 357 355 354 356 357 357 358 359 359 358 357 355 353
315 307 305 307 309 312 315 315 318 316 314 314 314 318 333 346 353 352 355 359 360 359 362 364 364 365 365 363 362 361 361 360 359 358 357 356 358 359 357 356 355 356 356 357 358 359 359 357 357
311 307 308 312 313 314 314 316 313 314 312 311 315 328 337 344 344 343 346 352 353 354 355 358 362 361 360 358 364 364 362 365 364 365 365 363 363 361 357 358 355 357 357 359 359 359 359 357 346
312 308 311 311 314 315 313 315 315 314 311 315 317 323 327 334 337 335 337 344 350 347 347 349 346 343 340 339 340 341 345 349 357 360 362 364 365 366 362 359 358 359 358 357 356 355 354 347 347
307 311 310 311 311 312 313 314 311 314 314 317 322 324 325 327 329 328 332 339 341 339 334 333 334 334 334 330 330 332 332 334 337 340 343 347 346 353 358 360 360 360 358 357 358 355 355 354 353
308 309 310 309 310 313 314 311 312 312 312 316 323 322 320 321 323 327 331 336 336 331 329 329 331 334 335 333 331 332 333 333 334 337 335 334 334 338 338 344 346 352 356 358 360 356 356 356 355
310 309 309 309 310 310 310 310 309 312 313 315 317 317 317 318 320 323 325 326 327 328 328 329 329 334 332 334 336 333 334 333 333 333 332 333 332 335 331 333 333 336 339 343 347 352 357 355 354
308 305 307 308 309 308 310 307 307 312 313 312 313 315 316 318 319 321 324 325 327 328 329 329 330 333 334 334 333 333 331 330 331 332 333 331 332 333 334 330 330 330 333 336 338 343 346 351 354
305 306 302 308 308 307 308 304 310 312 311 310 312 313 314 316 318 320 324 327 329 328 329 329 325 331 333 333 332 332 332 333 333 334 334 329 328 329 331 328 328 330 332 331 331 333 336 340 344
303 300 301 304 308 307 306 305 311 313 311 311 312 312 313 315 318 321 323 326 328 329 330 328 330 329 331 334 332 333 334 333 333 333 332 329 327 327 328 327 328 332 330 330 330 329 332 335 340
298 299 301 302 305 306 304 305 309 309 310 310 311 312 313 314 316 320 324 326 328 330 331 331 331 332 333 331 332 331 330 330 332 330 329 327 326 326 327 326 328 329 327 327 328 331 330 329 330
301 301 300 303 305 304 303 304 306 309 309 309 311 312 312 314 317 320 324 325 327 329 330 331 330 334 331 328 326 327 326 329 329 327 326 324 325 325 326 324 325 328 327 329 330 328 328 326 329
300 299 300 303 304 303 304 303 307 309 309 310 310 311 312 314 316 318 322 324 326 327 329 331 331 333 332 328 331 330 329 329 325 326 326 324 323 323 323 324 324 325 324 328 328 329 325 325 327
300 299 299 300 303 304 303 301 304 308 310 311 311 313 313 314 315 317 320 323 325 326 327 329 331 332 331 331 328 327 327 326 323 324 321 322 322 322 323 323 323 323 323 322 326 327 327 321 324
299 303 301 301 299 295 304 294 303 307 308 310 311 312 312 314 316 317 320 322 324 324 326 328 331 331 330 330 326 326 322 321 322 320 320 321 322 322 321 322 322 323 322 324 324 324 325 325 321
299 303 302 302 300 300 300 296 301 307 304 307 310 312 314 316 316 316 318 321 323 324 324 327 330 330 328 328 327 324 324 322 321 320 322 323 322 321 320 322 322 323 323 324 324 325 325 324 322
303 301 301 302 301 294 299 298 299 303 305 307 310 311 313 314 315 316 319 322 323 324 324 326 327 328 327 326 326 325 324 323 319 319 318 316 317 318 321 321 322 322 322 321 322 325 325 325 324
302 300 294 292 292 291 300 298 300 305 306 307 309 311 315 317 318 317 316 318 321 322 323 323 325 325 326 325 324 323 324 323 321 319 316 316 314 315 320 321 321 320 322 321 321 321 322 323 322
300 301 295 288 290 294 299 293 299 307 309 310 313 313 315 315 317 318 319 319 320 322 322 322 323 324 324 324 323 323 323 319 318 319 317 316 314 316 321 320 321 321 321 321 321 319 319 321 321
300 297 302 296 298 293 297 300 304 308 309 310 310 312 314 315 316 316 318 320 320 321 322 323 323 323 324 323 323 322 322 321 319 320 319 316 318 317 319 320 320 320 320 320 320 318 319 320 320
301 304 295 296 288 287 293 295 297 302 305 308 309 311 315 316 315 315 317 319 320 321 323 324 324 323 323 322 322 320 320 320 320 318 317 317 318 320 320 319 319 318 318 317 316 316 317 316 317
299 298 299 300 297 290 289 294 306 304 307 308 310 311 314 315 315 316 317 319 320 321 322 323 322 321 320 320 321 320 320 319 319 317 317 318 319 320 319 318 317 316 315 315 313 313 313 313 315
302 301 301 297 293 296 295 294 307 307 308 310 310 312 315 316 317 317 318 319 320 320 320 320 321 320 319 320 319 319 319 318 317 316 317 319 319 319 318 317 315 314 313 313 311 311 312 311 310
Wind_Speed
8 9 5 6 8 7 10 7 3 10 10 3 10 1 9 10 9 8 8 7 7 14 13 12 8 9 9 10 11 11 11 10 11 10 11 12 12 12 10 8 6 5 5 6 6 5 5 5 5
4 5 6 4 9 11 8 7 8 7 10 15 12 10 6 12 11 9 5 7 14 14 12 13 10 10 10 10 10 9 9 9 10 10 10 10 10 11 10 9 6 4 5 6 6 4 3 3 3
6 6 7 6 11 11 7 7 10 14 16 12 7 7 5 5 8 5 6 10 15 13 13 13 12 11 11 11 11 10 9 9 9 9 9 8 7 7 6 6 5 4 4 4 4 4 4 2 2
6 6 6 10 13 9 6 9 16 17 10 4 12 10 8 7 2 4 10 13 15 14 15 13 12 12 12 11 11 10 10 9 8 8 8 8 8 8 6 5 4 3 3 3 2 1 1 2 2
6 5 10 14 16 7 4 11 15 16 10 12 7 9 8 7 6 10 12 12 13 14 14 14 11 11 12 12 11 10 10 9 8 7 7 7 7 8 8 7 5 4 3 2 1 1 1 2 2
7 6 11 15 17 9 6 13 13 13 12 11 10 12 10 7 10 11 12 12 13 14 14 14 12 11 10 11 11 10 9 8 8 6 5 4 3 3 3 2 3 3 4 3 3 2 1 2 4
14 10 15 18 15 12 9 12 13 12 14 11 12 8 9 11 9 10 12 12 13 14 14 13 13 13 12 11 11 10 9 8 7 7 5 4 3 3 2 3 3 3 2 3 3 3 3 3 3
9 8 19 15 13 15 11 14 9 12 10 9 6 6 14 13 12 13 13 13 13 13 12 12 12 12 11 12 10 10 9 8 7 6 5 5 5 5 6 5 9 5 6 6 6 5 5 4 5
6 10 14 19 18 10 14 15 8 4 12 4 5 5 15 15 14 13 12 13 11 9 10 11 12 11 10 10 10 11 10 8 8 8 6 8 6 6 8 4 2 5 8 9 9 8 7 7 11
11 13 16 7 8 10 15 16 14 12 13 9 11 14 15 15 16 15 14 13 13 13 12 10 9 10 10 7 8 8 7 5 4 3 2 4 2 3 6 3 1 7 9 10 10 10 10 11 10
14 14 5 5 9 10 16 13 12 14 15 14 18 19 17 15 12 12 11 12 13 13 10 12 10 8 9 8 5 4 4 4 4 5 3 2 1 2 3 2 5 4 10 7 10 9 9 9 8
11 14 6 0 8 11 16 15 12 13 4 11 16 18 17 16 13 11 11 12 13 14 13 13 11 8 7 5 5 4 3 3 2 4 3 2 3 2 2 3 5 4 4 6 8 6 6 8 10
15 5 6 4 8 11 10 13 11 11 5 11 17 17 17 14 13 10 11 13 14 14 13 11 10 8 7 5 5 4 3 3 3 2 4 4 4 4 5 5 6 4 5 6 7 8 7 9 10
9 6 7 6 10 9 15 8 6 11 9 14 18 18 17 16 15 13 13 14 14 13 12 11 10 8 8 6 5 5 3 5 3 3 4 3 4 4 5 5 6 6 6 6 6 7 7 8 9
6 13 10 10 11 7 9 13 12 9 12 15 18 16 16 15 16 16 16 15 14 13 12 11 10 9 7 8 6 4 4 4 3 3 3 4 4 4 5 5 6 6 6 9 9 8 8 8 8
13 14 15 17 12 7 12 17 17 12 14 15 17 16 16 17 17 14 14 13 13 13 12 11 9 11 7 6 4 3 4 2 2 1 2 4 4 4 6 6 6 6 8 7 8 8 9 9 8
12 14 20 16 14 11 16 14 13 12 14 15 17 18 18 18 16 14 14 14 14 13 13 12 11 11 9 7 5 4 4 2 1 0 2 4 6 7 7 7 7 7 8 7 7 8 9 8 10
15 18 10 18 14 15 17 20 9 6 14 16 17 19 18 19 20 18 15 15 15 14 13 12 10 9 7 6 4 3 3 3 1 1 2 3 5 7 6 7 7 8 8 7 7 8 9 10 11
10 14 17 14 5 14 19 18 17 17 14 15 18 18 19 20 19 18 17 17 16 15 14 14 12 10 7 6 5 3 3 1 2 2 3 4 6 7 7 7 7 7 8 8 8 9 10 9 9
14 15 16 9 9 11 14 18 16 16 14 17 18 18 20 20 19 19 19 19 18 17 16 15 13 12 9 5 2 2 1 1 4 3 3 5 6 7 8 8 8 8 8 9 9 9 9 9 8
14 16 14 12 10 14 12 19 19 17 16 15 17 20 21 22 22 21 22 22 20 19 18 16 15 12 9 5 4 3 3 5 5 1 3 3 7 7 8 8 9 9 9 9 9 9 10 10 9
15 14 13 13 10 13 14 9 14 15 19 19 19 19 20 22 23 23 22 22 22 20 18 17 15 13 10 8 5 3 5 5 5 5 5 7 6 7 7 8 8 9 8 9 9 9 10 10 10
10 3 13 14 13 14 13 10 13 12 15 16 16 18 19 19 18 21 24 22 20 20 19 17 15 13 10 9 6 5 5 4 4 5 7 8 6 7 7 7 8 8 8 8 9 10 10 10 11
2 8 8 9 12 14 18 14 11 13 16 12 6 5 7 9 15 17 19 21 21 20 19 17 16 13 11 10 9 7 5 6 7 7 8 7 7 7 7 7 7 8 9 10 9 10 12 12 12
12 12 7 10 12 14 3 11 15 4 3 4 7 5 5 8 12 15 19 22 22 22 21 18 17 15 13 12 10 8 7 7 9 8 7 9 8 8 9 9 9 8 9 10 10 11 12 13 13
17 15 7 11 12 11 8 10 8 4 6 5 5 7 7 9 9 12 16 17 20 21 21 18 16 15 14 12 10 7 7 7 7 8 8 9 9 9 10 10 11 12 12 11 12 11 12 13 13
11 14 14 17 13 10 8 10 7 10 10 8 8 5 5 4 5 7 10 14 17 19 19 17 15 14 13 12 9 8 8 9 8 10 9 9 9 9 11 12 12 13 13 13 13 12 13 14 14
12 6 9 9 14 19 14 15 7 6 10 9 7 4 1 1 3 7 10 14 15 18 17 14 14 14 13 12 9 8 8 8 9 9 11 12 12 12 12 13 13 14 14 14 14 13 14 14 13
10 14 11 8 14 13 14 11 8 7 8 9 8 4 4 5 6 9 11 14 16 15 14 13 13 13 11 10 9 9 9 9 10 10 11 12 12 12 13 13 14 14 15 14 14 15 16 16 16
9 13 20 12 18 13 16 18 5 5 5 8 7 5 7 7 9 11 13 14 13 13 12 13 11 12 11 10 8 9 9 10 11 11 13 13 13 12 13 14 14 15 15 15 16 17 16 17 18
Wind_Direction
206 216 237 241 244 235 241 128 86 124 138 116 121 354 74 30 1 56 70 76 137 129 124 141 111 113 112 110 114 114 118 124 131 136 139 140 140 139 137 134 125 110 110 116 123 129 124 115 113
188 180 221 273 254 210 196 112 171 117 115 117 116 123 107 83 59 95 101 88 121 125 133 123 108 106 104 99 90 87 100 112 122 129 135 139 141 142 141 139 134 121 125 129 133 137 134 122 107
217 237 258 238 238 243 164 169 118 119 137 143 122 69 89 66 58 60 79 126 127 130 119 111 111 111 111 110 107 105 104 107 115 120 126 127 124 123 124 125 120 121 128 132 141 148 151 134 77
190 189 230 247 231 229 46 134 141 134 124 154 128 100 99 61 24 44 122 135 142 130 118 123 120 119 118 116 114 113 114 116 119 125 133 137 137 133 125 119 107 103 106 112 108 111 134 108 31
211 252 238 233 239 106 154 152 159 155 138 140 145 123 95 67 89 134 125 137 134 127 120 124 114 115 115 114 113 112 113 114 118 127 137 146 152 154 150 146 139 125 105 90 74 335 339 339 8
212 268 233 224 221 144 162 159 170 153 142 133 135 124 91 100 127 128 130 130 131 132 126 130 121 115 112 111 111 112 112 112 111 111 116 126 146 156 153 148 155 160 163 169 168 194 257 292 315
249 218 242 238 217 172 161 172 179 156 152 153 132 123 115 120 118 128 124 123 126 137 130 136 131 121 117 115 114 115 117 117 118 121 125 132 151 174 203 228 241 240 241 238 235 215 220 245 250
260 264 240 251 229 192 157 174 165 171 113 98 171 146 154 130 145 141 143 125 131 135 132 129 148 137 131 127 118 120 120 121 126 134 144 156 176 191 215 248 228 259 278 275 268 264 255 250 254
245 240 236 229 229 171 163 155 160 67 145 133 113 95 111 141 152 144 137 135 127 117 135 133 131 119 107 109 124 143 134 141 155 161 164 199 224 188 177 136 11 293 287 289 288 282 275 268 244
229 233 240 276 235 207 178 180 154 165 150 140 131 119 131 155 160 155 157 145 146 139 137 131 114 113 116 111 103 104 99 95 111 87 47 331 323 333 327 338 233 265 259 261 258 255 256 252 258
214 250 245 221 229 247 177 186 167 178 185 167 163 151 155 164 166 167 153 149 144 129 125 116 111 110 110 107 109 106 109 116 101 84 66 80 321 331 261 282 260 279 206 258 220 226 234 257 283
244 237 267 259 178 212 181 158 186 183 112 160 155 154 156 164 166 164 152 146 145 140 125 127 114 112 102 121 106 125 118 117 90 65 359 31 299 352 316 248 286 264 259 291 279 268 261 281 273
229 213 227 219 196 211 177 186 175 190 152 150 148 160 164 164 164 157 155 154 144 144 141 132 128 117 122 120 112 100 133 95 96 88 58 8 331 345 311 335 305 276 269 274 285 277 273 274 256
208 226 202 206 183 184 203 174 211 144 162 152 161 172 174 171 166 157 164 161 162 147 149 135 133 137 124 111 118 126 111 136 108 88 54 57 339 359 310 302 298 300 300 298 286 281 284 281 282
212 218 201 199 188 183 233 193 213 134 177 168 180 182 181 181 176 179 177 173 169 164 148 148 139 136 133 134 144 109 133 113 108 87 87 24 345 349 321 309 294 303 308 293 276 270 263 258 255
214 233 212 186 193 162 221 218 211 179 192 189 193 190 190 191 192 185 176 175 166 162 162 161 153 149 149 128 141 127 127 112 101 73 27 3 331 333 308 300 302 315 299 285 284 285 279 273 254
208 219 224 174 203 175 215 230 225 193 207 213 200 200 199 197 200 189 182 180 176 170 168 170 166 162 157 154 152 159 133 180 122 2 353 23 324 329 317 304 308 308 292 288 292 290 290 285 288
209 227 210 236 179 225 213 238 205 220 222 223 215 207 208 207 202 194 192 189 181 179 176 175 178 162 169 164 178 160 154 183 227 310 19 331 331 320 313 305 298 297 291 286 297 314 292 293 289
295 220 223 215 134 223 229 240 235 228 217 232 229 218 210 212 213 193 195 192 187 185 184 183 181 177 189 189 187 173 202 159 260 295 329 326 334 325 313 301 295 282 275 285 294 279 277 277 273
230 228 227 209 201 231 234 237 236 232 231 227 226 216 212 215 216 203 197 196 194 188 188 185 187 183 198 193 204 301 316 304 336 321 331 320 317 315 302 307 299 293 289 276 271 274 284 275 273
222 229 221 236 189 228 260 253 240 228 224 222 219 217 215 218 215 208 203 203 194 193 190 188 189 185 194 194 179 195 226 220 227 211 294 350 306 306 303 301 295 290 277 273 271 265 269 279 279
236 209 232 222 224 238 196 268 208 213 220 223 222 220 223 219 222 215 205 206 201 197 191 189 188 188 184 186 200 241 305 311 2 292 323 304 302 309 302 295 285 280 285 289 275 262 267 268 270
258 182 230 228 236 259 205 253 260 202 214 223 220 231 231 230 232 227 205 208 205 198 191 191 184 187 186 187 223 216 245 294 304 299 304 304 285 296 300 296 293 284 273 281 280 276 268 273 265
129 191 204 227 241 235 238 225 249 213 206 233 217 202 232 246 240 231 223 204 204 198 195 187 185 187 189 194 199 219 254 282 294 303 300 301 314 308 300 297 291 288 286 275 272 270 265 262 270
207 196 214 213 206 238 163 233 238 51 159 200 188 243 250 253 242 224 221 207 198 196 194 185 186 190 193 198 205 215 241 265 272 282 301 313 301 304 308 304 289 284 280 273 274 273 269 266 260
203 214 207 226 233 236 151 232 239 228 219 216 235 277 281 259 255 240 221 210 194 198 191 188 182 195 196 203 211 220 238 258 279 278 306 295 301 296 303 291 283 276 271 266 262 259 255 257 257
199 230 261 272 278 279 220 206 207 199 209 228 251 250 269 271 253 225 201 190 189 187 189 192 186 198 200 206 214 225 240 253 281 286 286 284 290 283 281 284 282 277 273 269 267 259 259 256 257
261 245 201 224 239 241 239 244 238 171 209 198 200 198 236 245 201 187 181 183 180 183 183 190 195 199 203 212 219 235 246 259 273 281 284 285 282 278 276 277 278 276 274 270 268 264 259 257 259
193 218 230 265 238 255 255 248 186 218 241 183 191 174 173 186 176 167 170 176 186 178 187 192 202 208 208 216 230 243 258 271 280 282 283 282 280 275 273 273 272 270 268 265 262 259 265 265 263
285 262 223 219 236 232 263 255 206 186 221 191 196 205 193 195 179 173 175 177 186 194 203 197 210 219 219 226 236 250 266 276 281 283 284 282 277 276 274 273 273 271 271 266 260 262 264 259 253